DK7LH-6 Weather Reports


time (UTC)temp
F
wind
direction
speed
knots
gust
knots
rain 1hr
in
rain 24hr
in
rain mn
in
humidity
%
barometer
mb
20260506013054 50 67 2.6 6.1 0.00 0.00 0.00 82 1007.6
20260506011524 51 48 2.6 7.8 0.00 0.01 0.00 82 1007.6
20260506010057 51 81 2.6 12.2 0.00 0.03 0.00 82 1007.7
20260506004527 51 13 0.9 3.5 0.00 0.10 0.00 82 1007.7
20260506003058 51 43 1.7 6.1 0.00 0.16 0.00 82 1007.9
20260506001528 51 29 0.9 2.6 0.00 0.18 0.00 82 1007.8
20260506000101 51 43 1.7 6.1 0.00 0.23 0.00 82 1008.0
20260505234531 51 37 1.7 6.1 0.00 0.23 0.00 82 1008.1
20260505233102 52 1 1.7 6.1 0.00 0.24 0.00 83 1008.2
20260505231532 52 22 0.9 0.9 0.00 0.24 0.00 83 1008.3
20260505230105 52 23 0.9 2.6 0.00 0.24 0.00 84 1008.4
20260505224535 52 36 3.5 8.7 0.00 0.24 0.00 84 1008.3
20260505223106 52 20 2.6 5.2 0.00 0.24 0.00 83 1008.3
20260505221536 52 24 3.5 5.2 0.00 0.24 0.00 82 1008.4
20260505220109 52 9 2.6 5.2 0.00 0.24 0.00 82 1008.6
20260505214539 52 16 2.6 5.2 0.00 0.24 0.24 83 1008.7
20260505213110 52 15 1.7 3.5 0.00 0.24 0.24 85 1008.8
20260505211540 52 7 0.9 2.6 0.00 0.24 0.24 85 1008.8
20260505210112 52 40 1.7 5.2 0.00 0.24 0.24 87 1008.8
20260505204542 53 24 2.6 6.1 0.00 0.24 0.24 87 1008.9
20260505203114 53 22 3.5 6.1 0.00 0.24 0.24 88 1008.9
20260505201545 53 31 3.5 5.2 0.00 0.24 0.24 88 1008.8
20260505200116 53 15 2.6 5.2 0.00 0.24 0.24 89 1008.8
20260505194546 53 5 3.5 7.8 0.00 0.24 0.24 89 1008.8
20260505193016 53 25 4.3 8.7 0.00 0.24 0.24 88 1008.5
20260505191548 53 9 4.3 6.1 0.00 0.24 0.24 89 1008.5
20260505190018 53 9 4.3 7.8 0.00 0.24 0.24 88 1008.5
20260505184550 53 16 4.3 8.7 0.00 0.24 0.24 87 1008.6
20260505183020 53 26 3.5 5.2 0.00 0.24 0.24 87 1008.5
20260505181552 53 2 4.3 8.7 0.00 0.24 0.24 87 1008.6
20260505180022 53 15 5.2 9.6 0.00 0.24 0.24 88 1008.6
20260505174554 53 355 5.2 7.8 0.00 0.24 0.24 88 1008.7
20260505173024 53 15 5.2 7.8 0.00 0.24 0.24 88 1008.7
20260505171556 53 4 6.1 8.7 0.00 0.24 0.24 87 1008.8
20260505170026 53 5 6.1 11.3 0.00 0.24 0.24 87 1008.9
20260505164558 53 2 3.5 7.8 0.00 0.24 0.24 87 1008.8
20260505163028 53 347 4.3 8.7 0.00 0.24 0.24 86 1008.9
20260505161600 53 5 7.8 12.2 0.00 0.24 0.24 86 1008.9
20260505153032 54 8 5.2 9.6 0.00 0.24 0.24 81 1009.3
20260505151604 54 355 5.2 9.6 0.00 0.24 0.24 81 1009.4
20260505130113 54 88 2.6 3.5 0.00 0.24 0.24 79 1010.0
20260505124543 54 103 1.7 3.5 0.00 0.24 0.24 78 1010.2
20260505123116 54 81 1.7 3.5 0.00 0.24 0.24 79 1010.3
20260505121546 54 81 2.6 3.5 0.00 0.24 0.24 78 1010.3
20260505120117 53 67 1.7 3.5 0.00 0.24 0.24 79 1010.3
20260505114547 53 353 2.6 8.7 0.00 0.24 0.24 78 1010.3
20260505113017 53 27 1.7 6.1 0.00 0.24 0.24 79 1010.3
20260505111549 52 40 1.7 5.2 0.00 0.24 0.24 79 1010.5
20260505101553 51 11 2.6 5.2 0.00 0.24 0.24 80 1010.8
20260505100023 51 11 3.5 9.6 0.00 0.24 0.24 81 1010.9
20260505094556 50 12 4.3 11.3 0.00 0.24 0.24 82 1010.9
20260505093026 49 9 4.3 11.3 0.00 0.24 0.24 83 1011.0
20260505091557 49 21 3.5 6.1 0.00 0.24 0.24 85 1011.0
20260505090027 49 32 0.9 2.6 0.00 0.24 0.24 87 1011.0
20260505084559 48 36 1.7 6.1 0.00 0.24 0.24 87 1011.1
20260505083029 48 32 0.9 3.5 0.00 0.24 0.24 86 1011.2
20260505081602 48 43 1.7 5.2 0.00 0.24 0.24 86 1011.2
20260505080031 48 36 0.9 2.6 0.00 0.24 0.24 87 1011.3
20260505074603 47 32 1.7 3.5 0.00 0.24 0.24 88 1011.3
20260505073033 47 26 1.7 6.1 0.00 0.24 0.24 88 1011.2
20260505071606 47 33 2.6 6.1 0.00 0.24 0.24 90 1011.0
20260505070036 47 11 1.7 6.1 0.00 0.24 0.24 91 1011.2
20260505064607 47 7 1.7 7.8 0.00 0.24 0.24 92 1011.2
20260505063037 47 87 1.7 6.1 0.00 0.24 0.24 92 1011.1
20260505061609 47 12 0.9 3.5 0.00 0.24 0.24 93 1011.2
20260505060039 47 30 3.5 7.8 0.00 0.24 0.24 93 1011.2
20260505054611 47 1 2.6 8.7 0.00 0.24 0.24 94 1011.1
20260505053112 47 11 0.9 3.5 0.00 0.24 0.24 93 1011.2
20260505051542 47 21 0.9 3.5 0.00 0.24 0.24 93 1011.0
20260505050114 47 6 2.6 7.8 0.00 0.24 0.24 92 1011.0
20260505041546 47 27 1.7 5.2 0.00 0.24 0.24 93 1011.0
20260505040016 47 1 3.5 8.7 0.00 0.24 0.24 95 1011.0
20260505034548 47 27 2.6 5.2 0.00 0.24 0.24 95 1011.0
20260505033018 47 26 2.6 6.1 0.00 0.24 0.24 96 1011.2
20260505031550 47 17 4.3 11.3 0.00 0.24 0.24 96 1011.2
20260505030020 47 12 3.5 6.1 0.00 0.24 0.24 97 1011.2
20260505024552 47 13 2.6 6.1 0.00 0.24 0.24 97 1011.3
20260505023022 47 20 3.5 7.8 0.00 0.24 0.24 97 1011.3
20260505021554 47 21 2.6 3.5 0.01 0.24 0.24 97 1011.5
20260505020024 47 19 1.7 3.5 0.03 0.24 0.24 97 1011.5
20260505014556 47 11 1.7 6.1 0.10 0.24 0.24 97 1011.7